• In Uzbekistan
  • List of Countries
  • For 7 days
  • Water Temperature
  • Satellite Maps
  • Weather Map
  • Weather Widgets
  • user-avatar
    Login

    Hourly Weather Klagenfurt

    Today, 23 October, Tuesday

    Time Temperature Precipitation Wind Pressure Humidity
    00:00 +4°C° 0 mm 1 mps 695 mmHg 90%
    01:00 +4°C° 0 mm 1 mps 695 mmHg 91%
    02:00 +4°C° 0 mm 1 mps 695 mmHg 91%
    03:00 +4°C° 0 mm 1 mps 695 mmHg 91%
    04:00 +4°C° 0 mm 1 mps 695 mmHg 90%
    05:00 +4°C° 0 mm 1 mps 695 mmHg 89%
    06:00 +4°C° 0 mm 1 mps 695 mmHg 88%
    07:00 +4°C° 0 mm 1 mps 695 mmHg 87%
    08:00 +6°C° 0 mm 1 mps 695 mmHg 76%
    09:00 +9°C° 0 mm 1 mps 695 mmHg 64%
    10:00 +11°C° 0 mm 0 mps 695 mmHg 53%
    11:00 +13°C° 0 mm 1 mps 695 mmHg 49%
    12:00 +15°C° 0 mm 1 mps 695 mmHg 46%
    13:00 +16°C° 0 mm 1 mps 694 mmHg 43%
    14:00 +15°C° 0 mm 1 mps 694 mmHg 49%
    15:00 +14°C° 0 mm 1 mps 693 mmHg 55%
    16:00 +12°C° 0 mm 1 mps 692 mmHg 61%
    17:00 +11°C° 0 mm 1 mps 692 mmHg 65%
    18:00 +9°C° 0 mm 1 mps 692 mmHg 70%
    19:00 +8°C° 0 mm 1 mps 692 mmHg 75%
    20:00 +8°C° 0 mm 1 mps 691 mmHg 75%
    21:00 +7°C° 0 mm 1 mps 691 mmHg 75%
    22:00 +7°C° 0 mm 1 mps 691 mmHg 76%
    23:00 +7°C° 0 mm 1 mps 691 mmHg 74%

    Tomorrow, 24 October, Wednesday

    Time Temperature Precipitation Wind Pressure Humidity
    00:00 +7°C° 0 mm 1 mps 690 mmHg 72%
    01:00 +7°C° 0 mm 1 mps 690 mmHg 71%
    02:00 +7°C° 0 mm 1 mps 689 mmHg 70%
    03:00 +7°C° 0 mm 1 mps 689 mmHg 69%
    04:00 +7°C° 0 mm 1 mps 689 mmHg 68%
    05:00 +7°C° 0 mm 1 mps 688 mmHg 68%
    06:00 +7°C° 0 mm 1 mps 688 mmHg 68%
    07:00 +7°C° 0 mm 1 mps 688 mmHg 68%
    08:00 +9°C° 0 mm 2 mps 688 mmHg 62%
    09:00 +13°C° 0 mm 2 mps 688 mmHg 57%
    10:00 +16°C° 0 mm 3 mps 688 mmHg 51%
    11:00 +16°C° 0 mm 3 mps 688 mmHg 50%
    12:00 +17°C° 0 mm 4 mps 688 mmHg 49%
    13:00 +17°C° 0 mm 4 mps 688 mmHg 48%
    14:00 +17°C° 0 mm 3 mps 688 mmHg 52%
    15:00 +16°C° 0 mm 3 mps 688 mmHg 56%
    16:00 +15°C° 0 mm 2 mps 688 mmHg 60%
    17:00 +13°C° 0 mm 2 mps 689 mmHg 65%
    18:00 +11°C° 0 mm 1 mps 689 mmHg 70%
    19:00 +10°C° 0 mm 1 mps 689 mmHg 75%
    20:00 +9°C° 0 mm 1 mps 690 mmHg 77%
    21:00 +9°C° 0 mm 1 mps 690 mmHg 79%
    22:00 +8°C° 0 mm 1 mps 691 mmHg 81%
    23:00 +8°C° 0 mm 1 mps 691 mmHg 83%

    Day after tomorrow, 25 October, Thursday

    Time Temperature Precipitation Wind Pressure Humidity
    00:00 +7°C° 0 mm 1 mps 691 mmHg 86%
    01:00 +7°C° 0 mm 1 mps 691 mmHg 88%
    02:00 +7°C° 0 mm 1 mps 691 mmHg 89%
    03:00 +6°C° 0 mm 1 mps 691 mmHg 89%
    04:00 +6°C° 0 mm 1 mps 691 mmHg 90%
    05:00 +6°C° 0 mm 1 mps 691 mmHg 89%
    06:00 +6°C° 0 mm 1 mps 691 mmHg 89%
    07:00 +6°C° 0 mm 1 mps 691 mmHg 89%
    08:00 +8°C° 0 mm 1 mps 691 mmHg 80%
    09:00 +11°C° 0 mm 1 mps 691 mmHg 71%
    10:00 +13°C° 0 mm 1 mps 692 mmHg 62%
    11:00 +14°C° 0 mm 1 mps 691 mmHg 60%
    12:00 +15°C° 0 mm 2 mps 691 mmHg 57%
    13:00 +16°C° 0 mm 2 mps 691 mmHg 55%
    14:00 +16°C° 0 mm 2 mps 690 mmHg 60%
    15:00 +15°C° 0 mm 2 mps 690 mmHg 66%
    16:00 +14°C° 0 mm 2 mps 690 mmHg 71%
    17:00 +12°C° 0 mm 1 mps 689 mmHg 78%
    18:00 +11°C° 0 mm 1 mps 689 mmHg 85%
    19:00 +9°C° 0 mm 1 mps 689 mmHg 92%
    20:00 +9°C° 0 mm 1 mps 689 mmHg 93%
    21:00 +8°C° 0 mm 1 mps 689 mmHg 93%
    22:00 +8°C° 0 mm 1 mps 689 mmHg 93%
    23:00 +8°C° 0 mm 1 mps 689 mmHg 93%

    26 October, Friday

    Time Temperature Precipitation Wind Pressure Humidity
    00:00 +8°C° 0 mm 1 mps 689 mmHg 92%
    01:00 +6°C° 0 mm 0 mps 689 mmHg 92%
    02:00 +7°C° 0 mm 0 mps 689 mmHg 90%
    03:00 +7°C° 0 mm 0 mps 689 mmHg 89%
    04:00 +7°C° 0 mm 0 mps 688 mmHg 88%
    05:00 +7°C° 0 mm 0 mps 688 mmHg 88%
    06:00 +8°C° 0 mm 1 mps 688 mmHg 87%
    07:00 +9°C° 0 mm 1 mps 688 mmHg 86%
    08:00 +10°C° 0.1 mm 1 mps 688 mmHg 85%
    09:00 +11°C° 0.1 mm 1 mps 688 mmHg 84%
    10:00 +12°C° 0.1 mm 1 mps 687 mmHg 83%
    11:00 +13°C° 0.1 mm 1 mps 687 mmHg 83%
    12:00 +13°C° 0.1 mm 2 mps 687 mmHg 83%
    13:00 +14°C° 0.1 mm 2 mps 686 mmHg 82%
    14:00 +13°C° 0.1 mm 2 mps 686 mmHg 84%
    15:00 +13°C° 0.1 mm 2 mps 685 mmHg 85%
    16:00 +13°C° 0.1 mm 2 mps 685 mmHg 87%
    17:00 +12°C° 0.2 mm 2 mps 685 mmHg 89%
    18:00 +12°C° 0.2 mm 2 mps 684 mmHg 91%
    19:00 +10°C° 0.2 mm 2 mps 684 mmHg 94%
    20:00 +10°C° 0.1 mm 2 mps 684 mmHg 94%
    21:00 +10°C° 0.1 mm 2 mps 684 mmHg 94%
    22:00 +11°C° 0.1 mm 1 mps 684 mmHg 94%
    23:00 +11°C° 0.1 mm 1 mps 684 mmHg 95%

    27 October, Saturday

    Time Temperature Precipitation Wind Pressure Humidity
    00:00 +10°C° 0.1 mm 1 mps 683 mmHg 95%
    01:00 +10°C° 0.1 mm 1 mps 683 mmHg 96%
    02:00 +10°C° 0.4 mm 2 mps 682 mmHg 96%
    03:00 +10°C° 0.4 mm 2 mps 682 mmHg 96%
    04:00 +10°C° 0.4 mm 2 mps 682 mmHg 96%
    05:00 +10°C° 0.7 mm 2 mps 681 mmHg 95%
    06:00 +10°C° 0.7 mm 2 mps 681 mmHg 94%
    07:00 +11°C° 0.7 mm 3 mps 681 mmHg 94%
    08:00 +11°C° 1.1 mm 3 mps 681 mmHg 92%
    09:00 +11°C° 1.1 mm 4 mps 681 mmHg 90%
    10:00 +12°C° 1.1 mm 4 mps 681 mmHg 88%
    11:00 +12°C° 1.7 mm 4 mps 681 mmHg 87%
    12:00 +11°C° 1.7 mm 4 mps 680 mmHg 86%
    13:00 +11°C° 1.7 mm 4 mps 680 mmHg 86%
    14:00 +11°C° 2.7 mm 3 mps 680 mmHg 87%
    15:00 +10°C° 2.7 mm 3 mps 679 mmHg 89%
    16:00 +9°C° 2.7 mm 2 mps 679 mmHg 91%
    17:00 +9°C° 4.3 mm 2 mps 678 mmHg 92%
    18:00 +8°C° 4.3 mm 2 mps 678 mmHg 93%
    19:00 +8°C° 4.3 mm 2 mps 678 mmHg 95%
    20:00 +7°C° 5.4 mm 2 mps 678 mmHg 95%
    21:00 +7°C° 5.4 mm 3 mps 678 mmHg 95%
    22:00 +5°C° 5.4 mm 3 mps 677 mmHg 95%
    23:00 +5°C° 4.3 mm 2 mps 677 mmHg 95%

    28 October, Sunday

    Time Temperature Precipitation Wind Pressure Humidity
    00:00 +4°C° 4.3 mm 2 mps 677 mmHg 94%
    01:00 +5°C° 4.3 mm 1 mps 677 mmHg 93%
    02:00 +4°C° 0.6 mm 1 mps 677 mmHg 93%
    03:00 +4°C° 0.6 mm 1 mps 677 mmHg 93%
    04:00 +4°C° 0.6 mm 1 mps 677 mmHg 93%
    05:00 +4°C° 0.3 mm 1 mps 678 mmHg 93%
    06:00 +4°C° 0.3 mm 1 mps 678 mmHg 93%
    07:00 +4°C° 0.3 mm 1 mps 679 mmHg 93%
    08:00 +3°C° 0.1 mm 2 mps 680 mmHg 88%
    09:00 +4°C° 0.1 mm 2 mps 681 mmHg 83%
    10:00 +5°C° 0.1 mm 2 mps 682 mmHg 79%
    11:00 +6°C° 0 mm 2 mps 682 mmHg 75%
    12:00 +6°C° 0 mm 2 mps 683 mmHg 72%
    13:00 +7°C° 0 mm 2 mps 683 mmHg 69%
    14:00 +6°C° 0 mm 2 mps 683 mmHg 72%
    15:00 +7°C° 0 mm 1 mps 684 mmHg 74%
    16:00 +6°C° 0 mm 0 mps 684 mmHg 77%
    17:00 +6°C° 0.1 mm 1 mps 684 mmHg 78%
    18:00 +5°C° 0.1 mm 1 mps 684 mmHg 79%
    19:00 +4°C° 0.1 mm 1 mps 685 mmHg 81%
    20:00 +4°C° 0.7 mm 1 mps 685 mmHg 83%
    21:00 +4°C° 0.7 mm 1 mps 685 mmHg 86%
    22:00 +4°C° 0.7 mm 1 mps 685 mmHg 89%
    23:00 +4°C° 1.1 mm 1 mps 685 mmHg 90%

    29 October, Monday

    Time Temperature Precipitation Wind Pressure Humidity
    00:00 +4°C° 1.1 mm 1 mps 685 mmHg 92%
    01:00 +4°C° 1.1 mm 1 mps 684 mmHg 93%
    02:00 +3°C° 0.8 mm 1 mps 684 mmHg 93%
    03:00 +2°C° 0.8 mm 2 mps 684 mmHg 92%
    04:00 +2°C° 0.8 mm 2 mps 684 mmHg 92%
    05:00 +2°C° 0.4 mm 2 mps 684 mmHg 92%
    06:00 +2°C° 0.4 mm 2 mps 684 mmHg 92%
    07:00 +2°C° 0.4 mm 2 mps 684 mmHg 91%
    08:00 +2°C° 0.4 mm 2 mps 684 mmHg 91%
    09:00 +2°C° 0.4 mm 2 mps 684 mmHg 90%
    10:00 +3°C° 0.4 mm 2 mps 684 mmHg 90%
    11:00 +3°C° 0.5 mm 2 mps 683 mmHg 89%
    12:00 +3°C° 0.5 mm 2 mps 683 mmHg 89%
    13:00 +4°C° 0.5 mm 2 mps 682 mmHg 89%
    14:00 +3°C° 0.7 mm 2 mps 682 mmHg 90%
    15:00 +3°C° 0.7 mm 2 mps 682 mmHg 91%
    16:00 +3°C° 0.7 mm 2 mps 681 mmHg 92%
    17:00 +3°C° 1.1 mm 2 mps 681 mmHg 92%
    18:00 +2°C° 1.1 mm 2 mps 681 mmHg 92%
    19:00 +2°C° 1.1 mm 2 mps 681 mmHg 93%
    20:00 +2°C° 1.6 mm 2 mps 680 mmHg 93%
    21:00 +2°C° 1.6 mm 2 mps 680 mmHg 93%
    22:00 +2°C° 1.6 mm 2 mps 680 mmHg 93%
    23:00 +1°C° 1.6 mm 2 mps 679 mmHg 93%
    Show more